When you browse on this site, cookies collect data to enhance your experience and personalize the content and advertising you see.
Visit our Privacy Policy to learn more. By continuing to use the site, you agree to this use of cookies and data.
  • In Deutschland
  • Länderverzeichnis
  • Für 7 Tage
  • Wassertemperatur
  • Satellitenkarten
  • Wetterkarte
  • Widgets
  • user-avatar
    Anmelden

    Stündliche Wetter Winchester

    Heute, 16 Dezember, Sonntag

    Zeit Temperatur Niederschläge Wind Luftdruck Luftfeuchtigkeit
    00:00 +4°C° 0 mm 6 m/S 747 mmHg 87%
    01:00 +4°C° 0 mm 6 m/S 748 mmHg 88%
    02:00 +5°C° 0 mm 5 m/S 748 mmHg 88%
    03:00 +5°C° 0 mm 5 m/S 748 mmHg 89%
    04:00 +3°C° 0 mm 5 m/S 748 mmHg 89%
    05:00 +3°C° 0 mm 5 m/S 749 mmHg 89%
    06:00 +3°C° 0 mm 4 m/S 749 mmHg 90%
    07:00 +4°C° 0 mm 4 m/S 749 mmHg 90%
    08:00 +4°C° 0 mm 3 m/S 749 mmHg 90%
    09:00 +4°C° 0 mm 3 m/S 750 mmHg 89%
    10:00 +5°C° 0 mm 3 m/S 749 mmHg 86%
    11:00 +7°C° 0 mm 4 m/S 749 mmHg 83%
    12:00 +8°C° 0 mm 5 m/S 749 mmHg 81%
    13:00 +8°C° 0.4 mm 5 m/S 748 mmHg 84%
    14:00 +7°C° 0.4 mm 6 m/S 748 mmHg 86%
    15:00 +7°C° 0.4 mm 6 m/S 747 mmHg 88%
    16:00 +7°C° 1.2 mm 6 m/S 747 mmHg 90%
    17:00 +7°C° 1.2 mm 6 m/S 747 mmHg 92%
    18:00 +7°C° 1.2 mm 6 m/S 747 mmHg 94%
    19:00 +7°C° 0.3 mm 6 m/S 748 mmHg 93%
    20:00 +5°C° 0.3 mm 6 m/S 748 mmHg 91%
    21:00 +5°C° 0.3 mm 6 m/S 748 mmHg 90%
    22:00 +5°C° 0 mm 6 m/S 749 mmHg 90%
    23:00 +4°C° 0 mm 6 m/S 750 mmHg 89%

    Morgen, 17 Dezember, Montag

    Zeit Temperatur Niederschläge Wind Luftdruck Luftfeuchtigkeit
    00:00 +4°C° 0 mm 6 m/S 751 mmHg 88%
    01:00 +4°C° 0 mm 6 m/S 752 mmHg 89%
    02:00 +3°C° 0 mm 5 m/S 753 mmHg 90%
    03:00 +3°C° 0 mm 5 m/S 753 mmHg 90%
    04:00 +3°C° 0 mm 5 m/S 754 mmHg 91%
    05:00 +4°C° 0 mm 4 m/S 755 mmHg 91%
    06:00 +4°C° 0 mm 4 m/S 755 mmHg 91%
    07:00 +4°C° 0 mm 4 m/S 756 mmHg 91%
    08:00 +4°C° 0 mm 4 m/S 757 mmHg 91%
    09:00 +4°C° 0 mm 4 m/S 758 mmHg 91%
    10:00 +5°C° 0 mm 4 m/S 758 mmHg 87%
    11:00 +7°C° 0 mm 4 m/S 758 mmHg 82%
    12:00 +8°C° 0 mm 4 m/S 758 mmHg 78%
    13:00 +8°C° 0 mm 5 m/S 758 mmHg 80%
    14:00 +8°C° 0 mm 5 m/S 758 mmHg 82%
    15:00 +8°C° 0 mm 5 m/S 758 mmHg 84%
    16:00 +8°C° 0 mm 5 m/S 758 mmHg 86%
    17:00 +8°C° 0 mm 6 m/S 758 mmHg 88%
    18:00 +7°C° 0 mm 6 m/S 758 mmHg 90%
    19:00 +8°C° 0.1 mm 6 m/S 758 mmHg 90%
    20:00 +8°C° 0.1 mm 6 m/S 757 mmHg 90%
    21:00 +9°C° 0.1 mm 7 m/S 757 mmHg 90%
    22:00 +9°C° 0 mm 7 m/S 757 mmHg 90%
    23:00 +9°C° 0 mm 8 m/S 757 mmHg 90%

    übermorgen, 18 Dezember, Dienstag

    Zeit Temperatur Niederschläge Wind Luftdruck Luftfeuchtigkeit
    00:00 +9°C° 0 mm 8 m/S 756 mmHg 89%
    01:00 +9°C° 0 mm 8 m/S 756 mmHg 88%
    02:00 +9°C° 0 mm 8 m/S 755 mmHg 87%
    03:00 +8°C° 0 mm 9 m/S 755 mmHg 86%
    04:00 +8°C° 0 mm 9 m/S 754 mmHg 85%
    05:00 +8°C° 0 mm 9 m/S 754 mmHg 85%
    06:00 +8°C° 0 mm 9 m/S 753 mmHg 84%
    07:00 +7°C° 0 mm 9 m/S 752 mmHg 82%
    08:00 +7°C° 0 mm 10 m/S 752 mmHg 80%
    09:00 +7°C° 0 mm 10 m/S 751 mmHg 79%
    10:00 +7°C° 0.3 mm 10 m/S 750 mmHg 78%
    11:00 +7°C° 0.3 mm 11 m/S 749 mmHg 77%
    12:00 +7°C° 0.3 mm 11 m/S 748 mmHg 76%
    13:00 +7°C° 1 mm 11 m/S 748 mmHg 78%
    14:00 +6°C° 1 mm 11 m/S 747 mmHg 81%
    15:00 +6°C° 1 mm 10 m/S 746 mmHg 83%
    16:00 +6°C° 2.2 mm 10 m/S 745 mmHg 86%
    17:00 +7°C° 2.2 mm 10 m/S 745 mmHg 88%
    18:00 +7°C° 2.2 mm 10 m/S 745 mmHg 90%
    19:00 +6°C° 0.8 mm 9 m/S 745 mmHg 89%
    20:00 +6°C° 0.8 mm 7 m/S 746 mmHg 89%
    21:00 +5°C° 0.8 mm 6 m/S 746 mmHg 88%
    22:00 +6°C° 0 mm 5 m/S 746 mmHg 89%
    23:00 +6°C° 0 mm 5 m/S 747 mmHg 89%

    19 Dezember, Mittwoch

    Zeit Temperatur Niederschläge Wind Luftdruck Luftfeuchtigkeit
    00:00 +6°C° 0 mm 5 m/S 748 mmHg 90%
    01:00 +6°C° 0.1 mm 5 m/S 748 mmHg 90%
    02:00 +6°C° 0.1 mm 5 m/S 748 mmHg 90%
    03:00 +5°C° 0.1 mm 5 m/S 748 mmHg 90%
    04:00 +5°C° 0.4 mm 4 m/S 748 mmHg 91%
    05:00 +5°C° 0.4 mm 4 m/S 748 mmHg 91%
    06:00 +5°C° 0.4 mm 4 m/S 749 mmHg 91%
    07:00 +5°C° 0.2 mm 3 m/S 749 mmHg 91%
    08:00 +5°C° 0.2 mm 3 m/S 749 mmHg 91%
    09:00 +5°C° 0.2 mm 3 m/S 750 mmHg 91%
    10:00 +7°C° 0 mm 3 m/S 750 mmHg 87%
    11:00 +6°C° 0 mm 4 m/S 750 mmHg 83%
    12:00 +7°C° 0 mm 4 m/S 750 mmHg 79%
    13:00 +7°C° 0.1 mm 4 m/S 750 mmHg 80%
    14:00 +7°C° 0.1 mm 4 m/S 750 mmHg 81%
    15:00 +6°C° 0.1 mm 4 m/S 750 mmHg 82%
    16:00 +6°C° 0 mm 4 m/S 750 mmHg 83%
    17:00 +5°C° 0 mm 4 m/S 750 mmHg 85%
    18:00 +5°C° 0 mm 4 m/S 751 mmHg 87%
    19:00 +5°C° 0.2 mm 5 m/S 750 mmHg 86%
    20:00 +5°C° 0.2 mm 5 m/S 750 mmHg 86%
    21:00 +5°C° 0.2 mm 5 m/S 750 mmHg 85%
    22:00 +5°C° 0.3 mm 5 m/S 750 mmHg 85%
    23:00 +5°C° 0.3 mm 5 m/S 750 mmHg 85%

    20 Dezember, Donnerstag

    Zeit Temperatur Niederschläge Wind Luftdruck Luftfeuchtigkeit
    00:00 +5°C° 0.3 mm 5 m/S 750 mmHg 86%
    01:00 +5°C° 0.2 mm 5 m/S 750 mmHg 86%
    02:00 +5°C° 0.2 mm 5 m/S 750 mmHg 86%
    03:00 +5°C° 0.2 mm 5 m/S 750 mmHg 86%
    04:00 +5°C° 0.1 mm 5 m/S 750 mmHg 87%
    05:00 +3°C° 0.1 mm 5 m/S 750 mmHg 87%
    06:00 +3°C° 0.1 mm 5 m/S 750 mmHg 87%
    07:00 +4°C° 0.3 mm 6 m/S 750 mmHg 87%
    08:00 +4°C° 0.3 mm 6 m/S 751 mmHg 87%
    09:00 +4°C° 0.3 mm 6 m/S 751 mmHg 87%
    10:00 +5°C° 0.1 mm 7 m/S 751 mmHg 84%
    11:00 +6°C° 0.1 mm 7 m/S 751 mmHg 81%
    12:00 +8°C° 0.1 mm 7 m/S 752 mmHg 78%
    13:00 +8°C° 0.1 mm 7 m/S 752 mmHg 79%
    14:00 +7°C° 0.1 mm 6 m/S 752 mmHg 80%
    15:00 +7°C° 0.1 mm 6 m/S 752 mmHg 80%
    16:00 +7°C° 0.1 mm 5 m/S 752 mmHg 82%
    17:00 +7°C° 0.1 mm 5 m/S 752 mmHg 84%
    18:00 +6°C° 0.1 mm 5 m/S 752 mmHg 85%
    19:00 +6°C° 0.1 mm 5 m/S 753 mmHg 86%
    20:00 +6°C° 0.1 mm 5 m/S 753 mmHg 87%
    21:00 +6°C° 0.1 mm 4 m/S 753 mmHg 87%
    22:00 +5°C° 0 mm 4 m/S 753 mmHg 88%
    23:00 +5°C° 0 mm 4 m/S 752 mmHg 89%

    21 Dezember, Freitag

    Zeit Temperatur Niederschläge Wind Luftdruck Luftfeuchtigkeit
    00:00 +4°C° 0 mm 3 m/S 752 mmHg 90%
    01:00 +4°C° 0 mm 3 m/S 752 mmHg 89%
    02:00 +4°C° 0 mm 3 m/S 751 mmHg 89%
    03:00 +5°C° 0 mm 2 m/S 750 mmHg 89%
    04:00 +5°C° 0.7 mm 3 m/S 750 mmHg 91%
    05:00 +5°C° 0.7 mm 3 m/S 749 mmHg 92%
    06:00 +6°C° 0.7 mm 4 m/S 748 mmHg 94%
    07:00 +7°C° 0.7 mm 5 m/S 747 mmHg 95%
    08:00 +8°C° 0.7 mm 6 m/S 747 mmHg 95%
    09:00 +9°C° 0.7 mm 7 m/S 746 mmHg 96%
    10:00 +9°C° 0.1 mm 8 m/S 746 mmHg 92%
    11:00 +10°C° 0.1 mm 8 m/S 747 mmHg 88%
    12:00 +10°C° 0.1 mm 9 m/S 747 mmHg 85%
    13:00 +10°C° 0 mm 9 m/S 748 mmHg 83%
    14:00 +9°C° 0 mm 8 m/S 748 mmHg 82%
    15:00 +8°C° 0 mm 7 m/S 749 mmHg 80%
    16:00 +8°C° 0 mm 6 m/S 750 mmHg 84%
    17:00 +7°C° 0 mm 6 m/S 750 mmHg 87%
    18:00 +6°C° 0 mm 5 m/S 751 mmHg 91%
    19:00 +7°C° 0 mm 6 m/S 751 mmHg 91%
    20:00 +7°C° 0 mm 6 m/S 751 mmHg 91%
    21:00 +8°C° 0 mm 7 m/S 751 mmHg 91%
    22:00 +8°C° 0.3 mm 7 m/S 751 mmHg 89%
    23:00 +9°C° 0.3 mm 8 m/S 751 mmHg 88%
    Mehr zeigen